STARLINK-31459, 59233

Orbit data source: Space-Track

STARLINK-31459, 59233 is a payload satellite owned by SpaceX/Seattle (US) in LEO that was launched on Sat, 16 Mar 2024 UTC via an FALCON 9 launch vehicle from the Air Force Eastern Test Range (AFETR). Payload-class satellites include a variety of spacecraft equipped with specific instruments for various scientific and technological missions. These include communications satellites like Starlink; space stations such as the ISS; scientific satellites like the Hubble; Earth observation satellites from companies like Planet Labs, Umbra, and HawkEye 360; GPS; miniature CubeSats for education and research; and military/defense satellites.

Loading next visibility...
Identifier
59233, 2024-049C
Orbit
LEO
Country
Flag of USUS
Related business
Manufacturer
SpaceX/Seattle
Mission
Operational Commercial Communications
Bus & Motor
STARLINK V2M, Unknown motor
Mass
730 kg wet, ~700 kg dry
Launch date (UTC)
2024-03-16 (2 years ago)
Launch vehicle
FALCON 9
Launch site
Air Force Eastern Test Range (AFETR)
Object type
Payload
Rocket body
Debris
Shape & HBR
Box + 2 Pan, 17.7 m
Radar Cross Section
33.884 m², Large (>1 m²)

Expand to show TLE details & history
Last TLE update: 2 days ago

TLE from 2 days ago
0 STARLINK-31459
1 59233U 24049C   26171.33049632 -.00000462  00000-0 -72603-5 0  9995
2 59233  43.0007 283.8779 0001064 272.0044  88.0686 15.27572120128090
Epoch: 2026-06-20T07:55Z
TLE epoch observation values (Epoch: 2026-06-20T07:55:54.882Z)
Latitude
0.00002°
Longitude
-103.64742°
Altitude
482.824 km
Speed
7.626 km/s
True Right ascension
18h 55m 30s
True Declination
0° 00' 00"
Sunlit
Object was in full shadow at epoch
Visualization orbit readout
Latitude
Unknown
Longitude
Unknown
Altitude
Unknown
Speed
Unknown
Apparent Right ascension
Unknown
Apparent Declination
Unknown
Sunlit
N/A
Visualization observer readout
Local Sidereal Time
21:26:31
Azimuth
Unknown
Elevation
Unknown
Doppler factor
Unknown
Orbital elements
Apogee altitude
485.748 km
Perigee altitude
484.288 km
Semi-major axis
6,863.155 km
Eccentricity
0.00011
Inclination
43.0007°
RAAN
283.8779°
Arg. of periapsis
272.0044°
True anomaly
88.08079°
Mean anomaly
88.0686°
Eccentric anomaly
88.07469°
Mean motion
3.81731 °/min
Orbital period
94.31 mins
BSTAR
-0.0000072603
Loading maneuver chart data...
Computing Atmospheric mass density...
Loading historical data...
Loading historical data...
Loading historical data...
Loading historical data...
Loading historical data...
Loading historical data...
Loading historical data...

Documentation

Showing up to 5 results
|